Location: Kershaw
(34.5481°N, 80.5823°W)
Time: 11:58:01
(UTC+00:00)

Tiros 1 despin weight - Pass Details

Date: 09 October 2022
Orbit: 590 x 637 km, 48.2° (Epoch: 25 November)

Event Time Altitude Azimuth Distance (km) Brightness Sun altitude
Rises 21:32:49 0° 303° (WNW) 2,843 ? 15.7°
Reaches altitude 10° 21:36:09 10° 329° (NNW) 1,951 ? 15.1°
Maximum altitude 21:38:31 14° 1° (N) 1,711 ? 14.6°
Drops below altitude 10° 21:40:54 10° 33° (NNE) 1,968 ? 14.1°
Sets 21:44:17 0° 59° (ENE) 2,885 ? 13.5°
